LIPELDSP

Guest
Details From LIPE - BOLOGNA
To LDSP - SPLIT
Flight Number -
Tags generated
Created
Modified
Stats Distance 225 nm / 416 km
Max Altitude 25,700 ft / 7,833 m
Waypoints 4
Social Downloads 1
Likes 0
Share VATSIM

Download

Looking for another format? Having issues loading an existing format? Contact us
Advertisement - Login to hide

Notes

Basic altitude profile: - Ascent Rate: 2500ft/min - Ascent Speed: 250kts - Cruise Altitude: 35000ft - Cruise Speed: 420kts - Descent Rate: 1500ft/min - Descent Speed: 250kts Options: - Use NATs: yes - Use PACOTS: yes - Use low airways: yes - Use high airways: yes

Route

LIPE BUSER IBENI LDSP

ID Type Via Altitude Latitude Longitude Leg Dist Tot Dist Heading (true) Name
O LIPE APT - 0 ft / 0 m 44.53545˚ 11.28866˚ - 0 nm - BOLOGNA
BUSER FIX - 25,700 ft / 7,833 m 44.10667˚ 13.64889˚ 104 nm 104 nm 103° / 105° -
IBENI FIX - 22,900 ft / 6,980 m 44.01417˚ 13.92167˚ 13 nm 117 nm 115° / 115° -
O LDSP APT - 0 ft / 0 m 43.53903˚ 16.29811˚ 106 nm 224 nm 105° / 106° SPLIT

Altitude Profile

Advertisement - Login to hide

Weather


0- 5 10 15 20 25 30 35+ Temperature / ° C

Clouds and Precipitation
Forecast for 2018-04-22 12:00 UTC. Updated 2 hours ago

Ground ~20,000 ft ~40,000 ft Winds

LIPE

Details ICAO LIPE (BLQ)
Name BOLOGNA
Region Italy
Timezone Europe/Rome (UTC+2.0)
Stats Elevation 123 ft / 37 m (AMSL)
Location 44.535446° 11.288662°
Runways 1
Magnetic Variation 2.957° E

METAR

LIPE 221320Z VRB05KT CAVOK 26/08 Q1017

Decode

TAF

TAF LIPE 221100Z 2212/2312 09007KT CAVOK TEMPO 2222/2306 2000 BCFG

Decode

Departure Runways

ID Width Length Bearing (true) Bearing (mag) Surface Threshold Offset Overrun Length
12 148 ft / 45 m 9,185 ft / 2,800 m 116.78° 113.82° Asphalt 1,007 ft / 307 m 0 ft / 0 m
30 148 ft / 45 m 9,185 ft / 2,800 m 296.81° 293.85° Asphalt 1,188 ft / 362 m 200 ft / 61 m

LDSP

Details ICAO LDSP (SPU)
Name SPLIT
Region Croatia
Timezone Europe/Zagreb (UTC+2.0)
Stats Elevation 79 ft / 24 m (AMSL)
Location 43.539026° 16.298112°
Runways 1
Magnetic Variation 3.875° E

METAR

LDSP 221330Z 24008KT 210V280 CAVOK 23/13 Q1018 NOSIG

Decode

TAF

TAF LDSP 221125Z 2212/2312 23008KT CAVOK TX22/2212Z TN12/2304Z BECMG 2216/2218 VRB02KT BECMG 2309/2311 23011KT

Decode

Destination Runways

ID Width Length Bearing (true) Bearing (mag) Surface Threshold Offset Overrun Length
05 148 ft / 45 m 8,357 ft / 2,547 m 52.48° 48.61° Asphalt 0 ft / 0 m 76 ft / 23 m
23 148 ft / 45 m 8,357 ft / 2,547 m 232.50° 228.63° Asphalt 525 ft / 160 m 820 ft / 250 m

Approach Navaids

Runway Type Ident Frequency Range Bearing (true) Bearing (mag) Slope Elevation
05 Localiser IST 110.50 MHz 25 nm / 46 km 52.57° 48.70° - 69 ft / 21 m (AMSL)
05 Glidescope IST 110.50 MHz 25 nm / 46 km 52.57° 48.70° 3.00° 52 ft / 16 m (AMSL)

Popular Alternatives